Torna al catalogo

NOAA 16 DEB

AttivoSSO
NORAD 41399·DEBRIS·🇺🇸 United States

Lanciato Sep 21, 2000 da Vandenberg Space Force Base

Loading…

Prossimi Passaggi (prossime 24 ore)

TLE

AggiornatoSource: Space-Track

Epoca: Sep 12, 2026, 07:41 UTC

1 41399U 00055KC  26255.32033163  .00001701  00000-0  83803-3 0  9991
2 41399  98.7381 291.9340 0037543 327.9782  31.9113 14.18521159546260

Traccia NOAA 16 DEB in tempo reale con AllMySat

Download on the App Store